This is the latest recevied weather packets stored in our database for station/object N3DXC. If no packets are shown the sender has not sent any weather packets the latest 10 day(s).
| Time | Temp. | Humidity | Pressure | Rain* | Wind** | Luminosity | Snow |
|---|---|---|---|---|---|---|---|
| 1777307714 | 16.67° C | 50% | 1023.1 hPa | 0 mm | - | - | - |
| 1777307413 | 16.11° C | 50% | 1023.2 hPa | 0 mm | - | - | - |
| 1777307113 | 16.11° C | 51% | 1023.2 hPa | 0 mm | - | - | - |
| 1777306814 | 16.67° C | 48% | 1023.3 hPa | 0 mm | - | - | - |
| 1777306513 | 16.67° C | 51% | 1023.4 hPa | 0 mm | - | - | - |
| 1777306214 | 16.67° C | 49% | 1023.4 hPa | 0 mm | - | - | - |
| 1777305913 | 16.67° C | 48% | 1023.4 hPa | 0 mm | - | - | - |
| 1777305616 | 16.11° C | 49% | 1023.5 hPa | 0 mm | - | - | - |
| 1777305315 | 16.11° C | 50% | 1023.5 hPa | 0 mm | - | - | - |
| 1777305016 | 15.56° C | 54% | 1023.6 hPa | 0 mm | - | - | - |
| 1777304714 | 15.56° C | 49% | 1023.6 hPa | 0 mm | - | - | - |
| 1777304414 | 16.11° C | 56% | 1023.6 hPa | 0 mm | - | - | - |
| 1777304114 | 16.11° C | 51% | 1023.7 hPa | 0 mm | - | - | - |
| 1777303814 | 15.56° C | 57% | 1023.9 hPa | 0 mm | - | - | - |
| 1777303513 | 15.56° C | 57% | 1023.6 hPa | 0 mm | - | - | - |
| 1777303213 | 15.56° C | 54% | 1023.9 hPa | 0 mm | - | - | - |
| 1777302914 | 15.56° C | 54% | 1023.7 hPa | 0 mm | - | - | - |
| 1777302614 | 15.56° C | 59% | 1023.9 hPa | 0 mm | - | - | - |
| 1777302314 | 15° C | 59% | 1023.9 hPa | 0 mm | - | - | - |
| 1777302015 | 15° C | 59% | 1023.9 hPa | 0 mm | - | - | - |
| 1777301714 | 14.44° C | 58% | 1023.9 hPa | 0 mm | - | - | - |
| 1777301414 | 14.44° C | 62% | 1023.9 hPa | 0 mm | - | - | - |
| 1777301115 | 14.44° C | 63% | 1023.9 hPa | 0 mm | - | - | - |
| 1777300814 | 14.44° C | 60% | 1024 hPa | 0 mm | - | - | - |
| 1777299914 | 15° C | 68% | 1024.1 hPa | 0 mm | - | - | - |
* Rain latest hour (hover to see other rain measurements)
** Current wind speed in m/s (hover to see current wind gust speed)